Tracking 20945 objects as of 8-Jul-2020
HD Live streaming from Space Station
objects crossing your sky now

COSMOS 397 DEB

Track COSMOS 397 DEB now!
10-day predictions


NORAD ID: 5222
Int'l Code: 1971-015AW
Perigee: 555.8 km
Apogee: 1,619.4 km
Inclination: 65.7 °
Period: 106.8 minutes
Semi major axis: 7458 km
RCS: 0.0146 m2 (small)
Launch date: February 25, 1971
Source: Commonwealth of Independent States (former USSR) (CIS)
Launch site: TYURATAM MISSILE AND SPACE COMPLEX (TTMTR)

Note: This is SATELLITE DEBRIS
aabbcc
Your satellite tracking list
Your tracking list is empty




NASA's NSSDC Master Catalog

Two Line Element Set (TLE):
1  5222U 71015AW  20189.51449653 +.00000177 +00000-0 +90507-4 0  9992
2  5222 065.7227 229.1926 0712972 210.7727 144.9640 13.47771890367604
Source of the keplerian elements: AFSPC